STARLINK-36304, 68550

Orbit data source: Space-Track

STARLINK-36304, 68550 is a payload satellite owned by SpaceX/Seattle (US) in LEO that was launched on Thu, 02 Apr 2026 UTC via an FALCON 9 launch vehicle from the Air Force Eastern Test Range (AFETR). Payload-class satellites include a variety of spacecraft equipped with specific instruments for various scientific and technological missions. These include communications satellites like Starlink; space stations such as the ISS; scientific satellites like the Hubble; Earth observation satellites from companies like Planet Labs, Umbra, and HawkEye 360; GPS; miniature CubeSats for education and research; and military/defense satellites.

Loading next visibility...
Identifier
68550, 2026-070J
Orbit
LEO
Country
Flag of USUS
Related business
Manufacturer
SpaceX/Seattle
Mission
Operational Commercial Communications
Bus & Motor
STARLINK V2MO, Unknown motor
Mass
575 kg wet, ~530 kg dry
Launch date (UTC)
2026-04-02 (5 months ago)
Launch vehicle
FALCON 9
Launch site
Air Force Eastern Test Range (AFETR)
Object type
Payload
Rocket body
Debris
Shape & HBR
Box + 1 Pan, 17.7 m
Radar Cross Section
41.120 m², Large (>1 m²)

Expand to show TLE details & history
Last TLE update: 10 hours ago

TLE from 10 hours ago
0 STARLINK-36304
1 68550U 26070J   26247.00123253  .00020225  00000-0  60805-3 0  9999
2 68550  53.1579 250.9017 0001844  91.8990 268.2224 15.34402641 23903
Epoch: 2026-09-04T00:01Z
TLE epoch observation values (Epoch: 2026-09-04T00:01:46.490Z)
Latitude
-0.00001°
Longitude
-92.67334°
Altitude
463.636 km
Speed
7.636 km/s
True Right ascension
16h 43m 36s
True Declination
0° 00' 00"
Sunlit
Object was in daylight at epoch
Visualization orbit readout
Latitude
Unknown
Longitude
Unknown
Altitude
Unknown
Speed
Unknown
Apparent Right ascension
Unknown
Apparent Declination
Unknown
Sunlit
N/A
Visualization observer readout
Local Sidereal Time
02:17:15
Azimuth
Unknown
Elevation
Unknown
Doppler factor
Unknown
Orbital elements
Apogee altitude
464.214 km
Perigee altitude
461.691 km
Semi-major axis
6,841.09 km
Eccentricity
0.00018
Inclination
53.1579°
RAAN
250.9017°
Arg. of periapsis
91.899°
True anomaly
268.20128°
Mean anomaly
268.2224°
Eccentric anomaly
268.21184°
Mean motion
3.83579 °/min
Orbital period
93.85 mins
BSTAR
0.00060805
Loading maneuver chart data...
Computing Atmospheric mass density...
Loading historical data...
Loading historical data...
Loading historical data...
Loading historical data...
Loading historical data...
Loading historical data...
Loading historical data...

Documentation

Showing up to 5 results
|